This is the latest recevied weather packets stored in our database for station/object F4JHN-13. If no packets are shown the sender has not sent any weather packets the latest 10 day(s).
| Time | Temp. | Humidity | Pressure | Rain* | Wind** | Luminosity | Snow |
|---|---|---|---|---|---|---|---|
| 1777910469 | 20.56° C | 99% | 1014.1 hPa | - | - | 0 W/m² | - |
| 1777910144 | 20.56° C | 99% | 1013.9 hPa | - | - | 0 W/m² | - |
| 1777909820 | 20.56° C | 99% | 1013.9 hPa | - | - | 0 W/m² | - |
| 1777909500 | 20.56° C | 99% | 1013.9 hPa | - | - | 0 W/m² | - |
| 1777909181 | 20.56° C | 99% | 1013.8 hPa | - | - | 0 W/m² | - |
| 1777908862 | 20.56° C | 99% | 1013.9 hPa | - | - | 0 W/m² | - |
| 1777908543 | 20.56° C | 99% | 1014 hPa | - | - | 0 W/m² | - |
| 1777908222 | 20.56° C | 99% | 1014 hPa | - | - | 0 W/m² | - |
| 1777907898 | 20.56° C | 99% | 1013.9 hPa | - | - | 0 W/m² | - |
| 1777907577 | 20.56° C | 99% | 1013.8 hPa | - | - | 0 W/m² | - |
| 1777907258 | 20.56° C | 99% | 1013.9 hPa | - | - | 0 W/m² | - |
| 1777906939 | 20.56° C | 99% | 1014 hPa | - | - | 0 W/m² | - |
| 1777906620 | 20.56° C | 99% | 1014.2 hPa | - | - | 0 W/m² | - |
| 1777906299 | 21.11° C | 99% | 1014.2 hPa | - | - | 0 W/m² | - |
| 1777905973 | 21.11° C | 99% | 1014.1 hPa | - | - | 0 W/m² | - |
| 1777905654 | 21.11° C | 99% | 1014.1 hPa | - | - | 0 W/m² | - |
| 1777905335 | 21.67° C | 99% | 1014.1 hPa | - | - | 0 W/m² | - |
| 1777905017 | 21.11° C | 99% | 1014.3 hPa | - | - | 0 W/m² | - |
| 1777904698 | 20.56° C | 99% | 1014.5 hPa | - | - | 0 W/m² | - |
| 1777904377 | 20° C | 99% | 1014.4 hPa | - | - | 0 W/m² | - |
| 1777904053 | 20° C | 99% | 1014.4 hPa | - | - | 0 W/m² | - |
| 1777903734 | 20° C | 99% | 1014.4 hPa | - | - | 0 W/m² | - |
| 1777903415 | 20° C | 99% | 1014.4 hPa | - | - | 0 W/m² | - |
| 1777903096 | 20° C | 99% | 1014.4 hPa | - | - | 0 W/m² | - |
| 1777902777 | 20° C | 99% | 1014.3 hPa | - | - | 0 W/m² | - |
* Rain since midnight (hover to see other rain measurements)
** Current wind speed in m/s (hover to see current wind gust speed)